Fernandina Beach, FL

9:15 PM EST on December 09, 2019 (GMT -0500)
Fernandina Beach

Weather History for KFHB - October, 2019

Change the Weather History Date:

Friday, October 18, 2019

  Actual Average (KNRB) Record (KNRB)
Temperature  
Mean Temperature 66 °F -  
Max Temperature 77 °F 76 °F 87 °F (2007)
Min Temperature 55 °F 64 °F 55 °F (2010)
Cooling Degree Days 1    
Growing Degree Days 16 (Base 50)    
Moisture  
Dew Point 56 °F    
Average Humidity 67    
Maximum Humidity 88    
Minimum Humidity 46    
Precipitation  
Precipitation 0.00 in - - ()
Sea Level Pressure  
Sea Level Pressure 29.95 in    
Wind  
Wind Speed 5 mph (NE)    
Max Wind Speed 13 mph    
Max Gust Speed 17 mph    
Visibility 10 miles    
Events Rain    
Averages and records for this station are not official NWS values.
T = Trace of Precipitation, MM = Missing Value Source: NWS Daily Summary

Daily Weather History Graph

Daily Weather History Graph

Search for Another Location

Airport or City:

Astronomy

Oct. 18, 2019 Rise Set
Actual Time 7:30 AM EDT 6:51 PM EDT
Civil Twilight 7:05 AM EDT 7:15 PM EDT
Nautical Twilight 6:37 AM EDT 7:43 PM EDT
Astronomical Twilight 6:09 AM EDT 8:11 PM EDT
Moon 10:22 PM EDT (10/18) 11:46 AM EDT (10/18)
Length of Visible Light 12h 10m
Length of Day
11h 21m
Waning Gibbous, 79% of the Moon is Illuminated
Oct 18
Waning Gibbous
Oct 21
Last Quarter
Oct 27
New
Nov 4
First Quarter
Nov 12
Full

Hourly Weather History & Observations

Time (EDT) Temp. Dew Point Humidity Pressure Visibility Wind Dir Wind Speed Gust Speed Precip Events Conditions
12:15 AM 62.2 °F 52.7 °F 71% 29.96 in 10.0 mi Calm Calm - N/A   Clear
12:35 AM 61.2 °F 53.4 °F 76% 29.96 in 10.0 mi Calm Calm - N/A   Clear
12:55 AM 61.7 °F 53.2 °F 74% 29.95 in 10.0 mi Calm Calm - N/A   Clear
1:35 AM 60.8 °F 51.4 °F 71% 29.94 in 10.0 mi NW 4.6 mph - N/A   Clear
1:55 AM 60.6 °F 50.9 °F 70% 29.93 in 10.0 mi NW 6.9 mph - N/A   Clear
2:15 AM 59.9 °F 51.3 °F 73% 29.94 in 10.0 mi NW 3.5 mph - N/A   Clear
2:35 AM 59.9 °F 51.1 °F 73% 29.94 in 10.0 mi NNW 4.6 mph - N/A   Clear
2:55 AM 59.4 °F 52.0 °F 77% 29.94 in 10.0 mi NW 3.5 mph - N/A   Clear
3:15 AM 57.2 °F 51.4 °F 81% 29.94 in 10.0 mi Calm Calm - N/A   Clear
3:35 AM 55.8 °F 51.3 °F 85% 29.94 in 10.0 mi SW 4.6 mph - N/A   Clear
3:55 AM 57.9 °F 51.6 °F 80% 29.93 in 10.0 mi WNW 4.6 mph - N/A   Clear
4:15 AM 56.3 °F 52.0 °F 85% 29.93 in 10.0 mi West 3.5 mph - N/A   Clear
4:35 AM 57.7 °F 52.7 °F 83% 29.92 in 10.0 mi NW 5.8 mph - N/A   Clear
4:55 AM 57.6 °F 53.8 °F 87% 29.92 in 10.0 mi NW 4.6 mph - N/A   Clear
5:15 AM 58.5 °F 53.6 °F 84% 29.92 in 10.0 mi NNW 4.6 mph - N/A   Clear
5:35 AM 58.5 °F 54.1 °F 86% 29.92 in 10.0 mi NNW 3.5 mph - N/A   Clear
5:55 AM 58.5 °F 53.6 °F 84% 29.91 in 10.0 mi North 6.9 mph - N/A   Clear
6:15 AM 59.9 °F 53.2 °F 79% 29.92 in 10.0 mi North 5.8 mph - N/A   Clear
6:35 AM 60.1 °F 53.2 °F 78% 29.92 in 10.0 mi North 4.6 mph - N/A   Clear
6:55 AM 59.0 °F 54.9 °F 86% 29.94 in 10.0 mi NW 3.5 mph - N/A   Clear
7:15 AM 60.1 °F 54.0 °F 80% 29.94 in 10.0 mi Calm Calm - N/A   Clear
7:35 AM 59.0 °F 55.4 °F 88% 29.94 in 10.0 mi Calm Calm - N/A   Clear
7:55 AM 59.0 °F 54.5 °F 85% 29.95 in 10.0 mi West 3.5 mph - N/A   Clear
8:15 AM 60.3 °F 56.5 °F 87% 29.96 in 10.0 mi WNW 3.5 mph - N/A   Clear
8:35 AM 61.5 °F 56.5 °F 83% 29.96 in 10.0 mi NW 3.5 mph - N/A   Clear
9:15 AM 62.1 °F 57.2 °F 84% 29.98 in 10.0 mi NNW 4.6 mph - N/A   Clear
9:35 AM 62.8 °F 57.0 °F 81% 29.99 in 10.0 mi NNW 3.5 mph - N/A   Clear
9:55 AM 64.4 °F 58.1 °F 80% 30.00 in 10.0 mi North 3.5 mph - N/A   Clear
10:15 AM 65.7 °F 58.6 °F 78% 30.00 in 10.0 mi NW 4.6 mph - N/A   Clear
10:35 AM 67.5 °F 58.6 °F 73% 30.00 in 10.0 mi NNW 4.6 mph - N/A   Clear
10:55 AM 68.5 °F 59.7 °F 73% 30.00 in 10.0 mi NNW 4.6 mph - N/A   Clear
11:15 AM 71.4 °F 59.7 °F 66% 29.99 in 10.0 mi North 4.6 mph - N/A   Mostly Cloudy
11:35 AM 75.0 °F 58.1 °F 56% 29.99 in 10.0 mi NE 8.1 mph - N/A   Mostly Cloudy
12:15 PM 75.6 °F 56.1 °F 51% 29.98 in 10.0 mi East 5.8 mph - N/A   Clear
12:35 PM 77.0 °F 58.3 °F 52% 29.97 in 10.0 mi NE 10.4 mph - N/A   Clear
12:55 PM 77.2 °F 59.0 °F 53% 29.97 in 10.0 mi ENE 11.5 mph - N/A   Clear
1:15 PM 77.9 °F 60.3 °F 54% 29.97 in 10.0 mi NE 8.1 mph - N/A   Mostly Cloudy
1:35 PM 76.5 °F 60.3 °F 57% 29.96 in 10.0 mi ENE 10.4 mph - N/A   Mostly Cloudy
1:55 PM 76.5 °F 55.9 °F 49% 29.95 in 10.0 mi East 9.2 mph - N/A   Scattered Clouds
2:15 PM 76.3 °F 54.3 °F 46% 29.94 in 10.0 mi ENE 11.5 mph - N/A   Clear
2:55 PM 76.1 °F 54.0 °F 46% 29.95 in 10.0 mi East 5.8 mph - N/A   Scattered Clouds
3:15 PM 76.3 °F 55.2 °F 48% 29.95 in 10.0 mi East 6.9 mph - N/A   Clear
3:35 PM 75.6 °F 55.2 °F 49% 29.95 in 10.0 mi East 8.1 mph - N/A   Clear
3:55 PM 75.0 °F 55.2 °F 50% 29.94 in 10.0 mi East 8.1 mph - N/A   Clear
4:15 PM 74.8 °F 56.1 °F 52% 29.95 in 10.0 mi ESE 5.8 mph - N/A   Clear
4:35 PM 74.7 °F 55.6 °F 51% 29.95 in 10.0 mi ESE 5.8 mph - N/A   Clear
4:55 PM 74.5 °F 56.5 °F 53% 29.95 in 10.0 mi East 4.6 mph - N/A   Clear
5:15 PM 74.1 °F 56.3 °F 54% 29.94 in 10.0 mi East 6.9 mph - N/A   Clear
5:55 PM 73.6 °F 57.0 °F 56% 29.93 in 10.0 mi East 5.8 mph - N/A   Clear
6:15 PM 73.4 °F 56.7 °F 56% 29.93 in 10.0 mi East 6.9 mph - N/A   Clear
6:35 PM 73.4 °F 56.8 °F 56% 29.92 in 10.0 mi East 6.9 mph - N/A   Clear
6:55 PM 73.2 °F 57.4 °F 57% 29.91 in 10.0 mi East 8.1 mph - N/A   Clear
7:15 PM 73.6 °F 57.6 °F 57% 29.92 in 10.0 mi East 10.4 mph - N/A   Clear
7:35 PM 73.2 °F 58.3 °F 59% 29.92 in 10.0 mi East 8.1 mph - N/A   Clear
7:55 PM 74.1 °F 58.1 °F 57% 29.92 in 10.0 mi East 9.2 mph - N/A   Clear
8:15 PM 73.9 °F 59.4 °F 60% 29.93 in 10.0 mi East 9.2 mph - N/A   Clear
8:35 PM 73.9 °F 59.5 °F 61% 29.93 in 10.0 mi East 6.9 mph - N/A   Clear
8:55 PM 74.7 °F 59.0 °F 58% 29.94 in 10.0 mi East 9.2 mph - N/A   Scattered Clouds
9:15 PM 75.4 °F 57.9 °F 54% 29.94 in 10.0 mi ESE 9.2 mph - N/A   Mostly Cloudy
9:35 PM 75.2 °F 60.1 °F 59% 29.94 in 10.0 mi ESE 8.1 mph - N/A   Mostly Cloudy
9:55 PM 75.7 °F 61.7 °F 62% 29.93 in 10.0 mi East 12.7 mph - N/A   Scattered Clouds
10:15 PM 76.1 °F 62.8 °F 63% 29.93 in 10.0 mi ESE 12.7 mph - N/A   Mostly Cloudy
10:35 PM 76.5 °F 61.2 °F 59% 29.92 in 10.0 mi East 10.4 mph - N/A   Overcast
10:55 PM 76.6 °F 62.6 °F 62% 29.93 in 10.0 mi ESE 10.4 mph - N/A   Overcast
11:15 PM 77.0 °F 63.7 °F 63% 29.93 in 10.0 mi ESE 10.4 mph - N/A   Overcast
11:35 PM 77.0 °F 64.8 °F 66% 29.94 in 10.0 mi ESE 12.7 mph 17.3 mph N/A   Overcast
11:55 PM 76.1 °F 65.7 °F 70% 29.93 in 10.0 mi ESE 12.7 mph 17.3 mph N/A Rain Light Rain